Visibility
15.0 15.0 15.0 15.0 14.5 15.0 13.6 15.0 15.0 11.6 15.0 15.0 15.0 15.0 15.0 15.0 15.0 9.6 13.7 15.0 15.0 13.1 14.9 14.2 10.6 4.6 8.4 13.4 14.2 15.0 15.0 15.0 15.0 15.0 15.0 15.0 15.0 15.0 15.0 15.0 15.0 15.0 10.3
15.0 15.0 15.0 15.0 15.0 15.0 11.7 9.4 15.0 15.0 14.5 15.0 15.0 15.0 15.0 15.0 15.0 14.7 2.1 12.3 15.0 15.0 15.0 15.0 6.7 10.8 15.0 4.9 15.0 15.0 15.0 15.0 15.0 15.0 15.0 15.0 15.0 15.0 15.0 15.0 15.0 15.0 15.0
15.0 15.0 15.0 15.0 15.0 15.0 10.2 12.1 15.0 15.0 15.0 14.2 2.7 0.3 15.0 15.0 15.0 15.0 15.0 0.8 9.9 15.0 15.0 15.0 15.0 15.0 15.0 15.0 15.0 15.0 15.0 14.6 15.0 15.0 15.0 15.0 15.0 15.0 15.0 15.0 15.0 15.0 15.0
15.0 15.0 15.0 7.2 15.0 15.0 15.0 8.2 8.2 15.0 15.0 15.0 10.1 0.1 11.4 15.0 15.0 15.0 13.3 8.2 6.6 15.0 14.7 10.8 15.0 15.0 15.0 15.0 13.5 15.0 13.0 14.4 13.5 15.0 15.0 15.0 15.0 15.0 15.0 15.0 15.0 15.0 15.0
15.0 15.0 15.0 15.0 15.0 15.0 15.0 8.7 14.0 15.0 9.9 11.7 11.3 7.4 0.2 15.0 8.3 0.2 13.3 4.6 2.0 0.6 2.8 12.8 1.8 0.2 0.1 3.7 7.4 15.0 15.0 14.4 10.8 8.8 15.0 15.0 15.0 15.0 15.0 15.0 15.0 15.0 15.0
15.0 15.0 15.0 15.0 15.0 15.0 15.0 5.1 13.3 13.0 15.0 10.4 9.5 9.5 0.2 0.1 0.1 0.3 0.1 0.1 0.7 3.5 0.2 2.5 15.0 15.0 4.6 9.3 1.4 0.2 14.8 15.0 15.0 10.3 10.7 15.0 15.0 15.0 15.0 15.0 15.0 15.0 15.0
15.0 15.0 15.0 15.0 15.0 15.0 15.0 15.0 5.1 5.0 15.0 4.3 4.5 7.0 9.7 2.4 0.1 0.1 0.1 0.1 0.1 0.5 4.9 5.5 7.5 15.0 15.0 15.0 13.2 0.2 0.1 4.1 15.0 15.0 12.8 15.0 15.0 15.0 15.0 15.0 15.0 15.0 15.0
15.0 15.0 15.0 15.0 15.0 15.0 15.0 15.0 12.9 5.4 5.3 5.0 4.2 4.3 6.5 7.4 0.7 3.2 0.2 0.1 0.0 0.2 3.6 5.4 12.2 15.0 15.0 0.3 15.0 6.2 1.3 15.0 4.5 15.0 15.0 14.2 15.0 15.0 15.0 15.0 15.0 15.0 15.0
14.4 15.0 15.0 15.0 15.0 15.0 13.6 6.4 8.9 9.0 8.2 5.1 5.3 4.5 6.9 5.5 7.3 10.3 10.4 4.5 0.1 0.1 4.5 7.0 15.0 15.0 15.0 12.2 6.3 13.4 15.0 0.4 7.2 10.2 0.2 0.1 11.0 14.4 15.0 15.0 15.0 15.0 0.0
14.6 15.0 15.0 15.0 15.0 15.0 11.8 14.5 15.0 15.0 13.9 6.2 6.0 5.9 7.1 5.8 7.9 4.1 6.0 7.2 5.5 4.9 2.9 10.2 8.3 14.9 15.0 15.0 3.7 15.0 1.9 0.1 1.0 6.7 14.9 1.5 1.4 15.0 13.7 15.0 15.0 15.0 11.4
15.0 15.0 15.0 15.0 15.0 12.7 15.0 13.9 15.0 6.0 11.3 5.3 12.6 6.4 5.9 6.0 11.5 15.0 13.3 1.6 0.1 0.7 9.4 12.2 15.0 14.7 15.0 14.4 15.0 0.3 0.1 0.2 0.0 0.1 0.9 0.3 0.2 11.8 15.0 15.0 15.0 15.0 14.8
15.0 15.0 15.0 15.0 15.0 15.0 10.9 12.0 15.0 7.3 8.9 9.4 9.8 8.7 5.7 7.1 12.8 13.0 15.0 7.7 8.3 1.6 4.5 15.0 15.0 15.0 15.0 14.8 15.0 15.0 13.7 5.8 0.2 0.1 0.1 0.1 0.1 0.1 0.2 3.2 5.8 15.0 15.0
15.0 15.0 15.0 15.0 14.4 15.0 12.6 6.7 3.9 9.7 15.0 9.2 7.8 14.7 7.7 3.0 5.5 15.0 15.0 15.0 14.7 15.0 15.0 15.0 15.0 15.0 15.0 15.0 15.0 15.0 14.2 0.1 0.1 0.1 0.1 0.1 0.1 0.1 0.1 0.0 0.0 0.0 0.0
15.0 15.0 14.8 14.9 14.9 11.7 8.1 6.4 4.9 3.2 3.1 5.0 3.4 4.6 4.9 13.8 7.3 13.5 6.6 7.4 14.5 15.0 15.0 15.0 15.0 15.0 15.0 15.0 15.0 15.0 15.0 3.4 0.1 0.1 0.1 0.1 0.1 0.1 0.1 0.1 0.0 0.0 0.0
15.0 15.0 15.0 15.0 9.2 13.1 14.9 6.7 4.6 7.2 3.0 0.6 0.2 1.8 0.2 0.8 0.5 13.1 10.3 8.7 12.9 15.0 15.0 15.0 8.5 2.7 1.6 15.0 15.0 15.0 15.0 11.0 15.0 0.9 0.1 0.1 0.1 0.1 0.1 0.1 0.1 0.1 0.1
15.0 15.0 15.0 15.0 15.0 13.9 8.5 7.8 15.0 15.0 15.0 15.0 15.0 7.6 8.5 11.7 15.0 15.0 15.0 15.0 15.0 15.0 7.3 6.4 8.4 1.9 0.0 0.1 0.1 7.5 15.0 15.0 15.0 15.0 15.0 0.9 0.1 0.1 0.1 0.1 0.1 0.1 0.1
15.0 15.0 14.8 14.4 14.7 10.7 6.1 10.3 9.2 15.0 15.0 15.0 15.0 15.0 15.0 14.9 15.0 15.0 15.0 15.0 15.0 15.0 5.4 4.8 0.9 2.1 1.0 0.2 0.1 0.1 0.1 9.8 15.0 15.0 15.0 15.0 5.5 0.1 0.0 0.1 0.1 0.1 0.1
15.0 15.0 8.9 9.0 8.9 7.9 12.1 7.7 4.0 4.4 3.2 5.1 15.0 15.0 15.0 15.0 15.0 15.0 15.0 15.0 14.0 13.9 10.5 7.5 1.1 5.4 9.1 8.3 4.9 0.0 0.1 0.1 0.2 1.2 14.7 15.0 12.8 3.9 0.9 2.0 0.0 0.0 0.1
15.0 13.2 15.0 5.6 12.6 10.2 11.9 10.3 11.0 14.3 10.4 10.0 9.4 15.0 15.0 15.0 15.0 15.0 15.0 6.0 2.5 9.1 13.5 14.3 10.2 9.6 8.2 8.8 12.2 13.4 5.7 0.2 0.1 0.0 0.1 0.1 0.0 6.1 15.0 15.0 15.0 0.9 0.1
10.0 15.0 15.0 13.3 8.5 11.0 13.0 11.1 8.5 15.0 13.8 7.7 6.9 4.8 13.5 14.8 8.3 5.2 8.2 2.5 4.1 6.8 9.3 8.5 10.6 9.9 9.2 10.1 9.8 2.6 7.9 7.8 8.0 0.6 0.0 0.0 0.0 0.1 1.1 10.7 15.0 15.0 15.0
12.5 9.8 14.8 15.0 15.0 15.0 13.3 8.8 15.0 15.0 13.3 7.4 4.1 12.7 15.0 13.5 9.8 8.7 3.6 1.8 1.3 1.7 1.6 7.6 4.0 8.2 8.1 8.3 15.0 7.8 14.1 0.8 10.4 7.9 9.0 0.1 0.0 0.0 0.0 0.1 0.1 0.2 14.5
6.4 12.5 11.8 11.9 15.0 14.9 14.0 11.5 12.9 14.0 4.2 6.9 11.7 15.0 15.0 11.1 13.1 13.1 11.3 1.5 0.6 2.3 2.1 1.6 1.4 1.4 0.6 0.3 0.6 1.1 3.9 1.6 2.4 10.0 5.7 7.2 0.1 0.0 0.0 0.0 0.0 0.1 0.1
5.1 9.3 15.0 12.8 13.4 15.0 15.0 12.6 13.2 14.3 9.5 5.7 8.3 4.4 3.3 1.8 2.5 2.7 3.1 3.5 9.4 3.7 4.9 8.0 1.5 3.6 5.5 2.8 3.8 0.2 0.2 0.4 0.5 0.5 0.3 0.7 5.9 0.7 0.1 0.1 0.0 0.0 0.0
10.8 14.9 15.0 15.0 7.3 10.8 15.0 14.5 14.5 15.0 15.0 3.4 2.7 3.9 3.0 1.8 1.5 2.1 1.3 2.3 6.4 6.3 7.2 4.1 7.1 3.5 2.9 1.1 1.9 1.1 0.4 0.1 0.1 0.3 0.4 0.1 0.1 7.9 3.6 0.1 0.0 0.0 0.0
15.0 15.0 15.0 15.0 4.5 2.6 4.1 15.0 14.4 5.8 4.4 2.7 1.5 1.6 9.3 7.6 8.1 3.9 6.7 9.2 7.3 3.0 7.7 6.9 3.8 3.6 4.0 3.8 3.9 2.8 2.1 3.6 1.4 0.3 0.4 0.3 0.1 0.2 0.7 2.5 0.1 0.0 0.0
15.0 15.0 15.0 15.0 14.5 6.4 4.8 6.4 6.9 4.2 3.5 5.6 7.3 12.9 15.0 15.0 15.0 13.0 8.2 14.4 7.2 8.1 10.9 12.3 11.0 11.3 12.9 14.8 13.9 11.6 9.3 4.1 3.4 10.5 1.8 4.0 0.0 0.1 0.5 0.4 4.1 1.7 0.1